Weather in Birzai

Lithuania     56°12′03″N   24°45′23″E
temp.,
°C
wind,
m/s
gust,
m/s
humid.,
%
clouds,
%
prec.,
mm/h
press.,
hPa
HPBL,
m
28 july, wed
wed2800:00+19s3496100 0.6 101087
03:00+18sw359675 0.6 1010105
06:00+16wsw23975 0.0 101069
09:00+20wsw34850 0.0 1011333
12:00+25wsw456385 0.0 10101009
15:00+27wsw46537 0.0 10091699
18:00+26wsw465442 0.0 10091632
21:00+21w23705 0.0 100940
29 july, thu
thu2900:00+19ssw237253 0.0 100828
03:00+18ssw2279100 0.0 100839
06:00+16sw379316 0.9 1007174
09:00+19wsw46838 1.0 1007454
12:00+24w56567 0.0 10071409
15:00+26wsw674788 0.0 10062229
18:00+23wsw486185 0.0 10061043
21:00+20wsw49685 0.1 1006241
30 july, fri
fri3000:00+17wsw497557 0.0 1007242
03:00+14sw411915 0.0 1007280
06:00+14sw513885 0.0 1006368
09:00+19sw713665 0.1 10061456
12:00+22sw8114763 0.1 10052183
15:00+23wsw912385 0.1 10042581
18:00+22wsw81443100 0.0 10032134
21:00+19sw7154827 0.0 10021365
31 july, sat
sat3100:00+17sw815615 0.0 1002989
03:00+17sw8157360 0.0 1002862
06:00+16wsw613866 0.0 1003609
09:00+19wsw697494 0.0 1004846
12:00+22sw6855100 0.1 10041435
15:00+25sw6847100 0.1 10041725
18:00+24ssw6749100 0.0 10021530
21:00+18sw51189100 2.3 1003380
1 august, sun
sun100:00+15sw389562 0.4 1003174
03:00+14sw413923 0.4 1003374
06:00+14ssw5149383 0.0 1003443
09:00+17sw7138399 0.1 1004656
12:00+22wsw7105222 0.4 10051825
15:00+24wsw794342 0.4 10062249
18:00+22w6850100 0.0 10061732
21:00+17wsw237281 0.0 100741